Regional Weather Roundup
Issued by NWS Kansas City/Pleasant Hill, MO

Home | Current Version | Previous Version | Text Only | Print | Product List | Glossary On
Versions: 1 2 3 4 5 6 7 8 9 10 11 12 13 14 15 16 17 18 19 20 21 22 23 24 25 26 27 28 29 30 31 32 33 34 35 36 37 38 39 40 41 42 43 44 45 46 47 48 49 50
000
ASUS43 KEAX 191510
RWREAX

WEATHER ROUNDUP FOR EASTERN KANSAS AND NORTHWEST MISSOURI
NATIONAL WEATHER SERVICE KANSAS CITY/PLEASANT HILL MO
1000 AM CDT SUN APR 19 2015

KSZ040-057-103>105-MOZ028-029-037-043-191600-
...KANSAS CITY METROPOLITAN AREA...

CITY           SKY/WX    TMP DP  RH WIND       PRES   REMARKS
K.C. INTL      PTSUNNY   59  54  83 NW9       29.70F
K.C. DOWNTOWN  PTSUNNY   61  54  77 NW7       29.69F
LEES SUMMIT    PTSUNNY   59  54  83 NW10      29.70S
OLATHE - IXD   CLOUDY    58  54  86 NW12      29.71F
OLATHE - OJC   PTSUNNY   57  53  86 NW8       29.70F
LAWRENCE       CLOUDY    59  53  80 NW14      29.71F

$$

MOZ001>008-011>017-020>025-030>033-038>040-044>046-053-054-191600-
...NORTHERN AND CENTRAL MISSOURI...

CITY           SKY/WX    TMP DP  RH WIND       PRES   REMARKS
ST. JOSEPH     CLOUDY    59  54  83 NW6       29.71F
MOSBY          CLOUDY    57  54  88 NW8       29.70R
WARRENSBURG    CLOUDY    61  57  88 W8        29.67S
WHITEMAN AFB   CLOUDY    61  61 100 W10       29.65S
CLINTON        PTSUNNY   63  59  88 W9        29.68R
SEDALIA        CLOUDY    59  58  96 SE5       29.65F
WARSAW         NOT AVBL
MARSHALL       MOSUNNY   66  63  88 CALM      29.65R
CHILLICOTHE      N/A     67  58  72 VRB3      29.66F
MOBERLY        MOSUNNY   68  55  64 NW5       29.67F
KIRKSVILLE     MOSUNNY   67  59  75 NE9       29.68F

$$

MOZ041-047>049-056>058-063>065-088>090-097-191600-
...EASTERN AND SOUTHERN MISSOURI...

CITY           SKY/WX    TMP DP  RH WIND       PRES   REMARKS
ST. LOUIS INTL LGT RAIN  66  58  75 E5        29.64F
SPIRIT OF STL  LGT RAIN  65  59  81 CALM      29.63F
COLUMBIA       RAIN      59  57  93 N5        29.68S FOG
JEFFERSON CITY LGT RAIN  60  58  92 NW5       29.67F FOG
HANNIBAL       PTSUNNY   66  50  55 CALM      29.65F
ROLLA          LGT RAIN  61  59  93 W9        29.64F
LEBANON        CLOUDY    61  57  88 E6        29.67F
OSAGE BEACH    CLOUDY    61  57  88 E5        29.65F
SPRINGFIELD    CLOUDY    61  54  77 SW5G21    29.68R
BRANSON        CLOUDY    57  54  88 SW6       29.71R
NEVADA         CLOUDY    57  54  88 W10       29.73S
JOPLIN         CLOUDY    58  53  84 VRB6      29.74R
WEST PLAINS    LGT RAIN  64  59  83 N8        29.66F

$$

IAZ060-094-KSZ022-034>040-054-083-096-NEZ052-066-093-191600-
...KANSAS...SOUTHEAST NEBRASKA AND IOWA...

CITY           SKY/WX    TMP DP  RH WIND       PRES   REMARKS
TOPEKA         CLOUDY    61  54  77 NW9       29.72F
MANHATTAN      CLOUDY    60  52  74 N3        29.74F
EMPORIA        CLOUDY    57  52  83 NW9       29.76R
CHANUTE        CLOUDY    57  55  93 W10       29.77R
WICHITA        CLOUDY    56  50  80 NW3       29.75F
OMAHA          LGT RAIN  54  52  93 NW15      29.73S FOG
LINCOLN        LGT RAIN  53  50  89 NW17      29.77F FOG
FALLS CITY     CLOUDY    57  54  89 NW10      29.70F
LAMONI         CLOUDY    62  58  86 NE6       29.67F
DES MOINES     CLOUDY    60  56  86 CALM      29.69F

$$



USA.gov is the U.S. government's official web portal to all federal, state and local government web resources and services.